Location: *
(47.7167°N, 1.7333°W)
Time: 03:01:40
(UTC+00:00)

STARLINK-1243 - Pass Details

Date: 09 April 2020
Orbit: 549 x 550 km, 53.0° (Epoch: 06 June)

Event Time Altitude Azimuth Distance (km) Brightness Sun altitude
Rises 20:57:53 0° 297° (WNW) 2,728 8.6 -20.3°
Reaches altitude 10° 21:00:08 10° 295° (WNW) 1,832 7.4 -20.6°
Maximum altitude 21:04:16 67° 213° (SSW) 601 3.7 -21.1°
Enters shadow 21:04:39 62° 177° (S) 623 3.6 -21.1°
